DW9996 Weather Reports


time (UTC)temp
F
wind
direction
speed
knots
gust
knots
rain 1hr
in
rain 24hr
in
rain mn
in
humidity
%
barometer
mb
20260508174550 70 196 6.1 13.0 0.00 0.00 0.00 38 1007.1
20260508173044 69 207 5.2 13.0 0.00 0.00 0.00 39 1007.2
20260508171542 68 238 5.2 13.9 0.00 0.00 0.00 39 1007.5
20260508170040 67 252 6.1 15.6 0.00 0.00 0.00 43 1007.7
20260508164535 67 234 7.0 14.8 0.00 0.00 0.00 42 1007.9
20260508163036 66 238 7.8 13.0 0.00 0.00 0.00 45 1008.0
20260508161532 64 227 6.1 11.3 0.00 0.00 0.00 49 1008.2
20260508160025 63 219 6.1 11.3 0.00 0.00 0.00 50 1008.3
20260508154522 62 224 7.0 12.2 0.00 0.00 0.00 52 1008.6
20260508153017 60 232 5.2 9.6 0.00 0.00 0.00 56 1008.8
20260508151515 58 229 5.2 11.3 0.00 0.00 0.00 60 1009.0
20260508150018 56 220 5.2 11.3 0.00 0.00 0.00 60 1009.1
20260508144509 56 233 5.2 10.4 0.00 0.00 0.00 59 1009.2
20260508143010 55 221 6.1 10.4 0.00 0.00 0.00 61 1009.4
20260508141503 53 188 3.5 5.2 0.00 0.00 0.00 54 1009.6
20260508140107 52 169 2.6 3.5 0.00 0.00 0.00 54 1009.6
20260508134604 49 221 0.0 1.7 0.00 0.00 0.00 57 1009.7
20260508133055 47 221 0.0 1.7 0.00 0.00 0.00 62 1009.9
20260508131554 45 221 0.0 1.7 0.00 0.00 0.00 67 1010.0
20260508130052 42 257 0.0 1.7 0.00 0.00 0.00 67 1009.7
20260508124553 40 257 0.9 2.6 0.00 0.00 0.00 67 1009.8
20260508123052 40 257 0.0 2.6 0.00 0.00 0.00 65 1009.6
20260508121551 40 295 0.0 0.0 0.00 0.00 0.00 66 1009.7
20260508120051 39 308 0.9 3.5 0.00 0.00 0.00 68 1009.7
20260508114603 39 309 0.9 2.6 0.00 0.00 0.00 68 1009.7
20260508113051 40 296 0.9 4.3 0.00 0.00 0.00 66 1009.4
20260508111600 41 308 1.7 3.5 0.00 0.00 0.00 65 1009.6
20260508110045 40 308 2.6 4.3 0.00 0.00 0.00 67 1009.6
20260508104545 38 303 2.6 3.5 0.00 0.00 0.00 70 1009.7
20260508103043 37 286 0.9 4.3 0.00 0.00 0.00 70 1009.7
20260508101541 38 294 0.9 2.6 0.00 0.00 0.00 69 1009.7
20260508100038 38 313 1.7 3.5 0.00 0.00 0.00 67 1009.6
20260508094536 38 259 1.7 2.6 0.00 0.00 0.00 66 1009.7
20260508093035 39 259 0.9 2.6 0.00 0.00 0.00 67 1009.6
20260508091538 40 253 0.9 1.7 0.00 0.00 0.00 65 1009.5
20260508090030 41 253 0.9 3.5 0.00 0.00 0.00 65 1009.6
20260508084528 40 234 1.7 5.2 0.00 0.00 0.00 67 1009.6
20260508083025 41 296 1.7 4.3 0.00 0.00 0.00 66 1009.4
20260508081522 43 263 4.3 8.7 0.00 0.00 0.00 65 1009.4
20260508080018 45 301 1.7 4.3 0.00 0.00 0.00 62 1009.2
20260508074518 44 254 0.9 2.6 0.00 0.00 0.00 64 1009.1
20260508073018 45 254 0.9 2.6 0.00 0.00 0.00 64 1009.1
20260508071513 47 311 0.9 3.5 0.00 0.00 0.00 60 1009.0
20260508070010 47 302 0.9 3.5 0.00 0.00 0.00 61 1008.9
20260508064508 47 273 0.9 2.6 0.00 0.00 0.00 63 1008.9
20260508063006 48 265 1.7 3.5 0.00 0.00 0.00 61 1008.9
20260508061505 48 304 1.7 2.6 0.00 0.00 0.00 62 1008.8
20260508060059 50 291 1.7 3.5 0.00 0.00 0.00 59 1008.8
20260508054559 52 298 1.7 6.1 0.00 0.00 0.00 57 1008.8
20260508053106 53 291 1.7 5.2 0.00 0.00 0.00 55 1008.8
20260508051606 54 298 0.9 3.5 0.00 0.00 0.00 55 1008.7
20260508050058 55 300 1.7 3.5 0.00 0.00 0.00 54 1008.8
20260508044607 57 284 2.6 5.2 0.00 0.00 0.00 51 1008.9
20260508043056 58 283 2.6 7.0 0.00 0.00 0.00 48 1008.7
20260508041556 59 275 4.3 9.6 0.00 0.00 0.00 47 1008.6
20260508040056 57 288 4.3 8.7 0.00 0.00 0.00 50 1008.6
20260508034555 56 295 2.6 4.3 0.00 0.00 0.00 51 1008.6
20260508033100 57 288 1.7 3.5 0.00 0.00 0.00 50 1008.5
20260508031556 59 285 1.7 5.2 0.00 0.00 0.00 46 1008.4
20260508030054 61 263 3.5 7.0 0.00 0.00 0.00 44 1008.1
20260508024603 61 309 3.5 6.1 0.00 0.00 0.00 43 1008.1
20260508023055 60 286 1.7 3.5 0.00 0.00 0.00 42 1007.8
20260508021555 62 307 0.9 5.2 0.00 0.00 0.00 36 1007.6
20260508020053 63 304 1.7 3.5 0.00 0.00 0.00 34 1007.3
20260508014552 65 330 2.6 7.8 0.00 0.00 0.00 31 1007.2
20260508013051 66 350 4.3 10.4 0.00 0.00 0.00 30 1007.1
20260508011605 65 346 4.3 7.8 0.00 0.00 0.00 31 1006.9
20260508010049 67 315 3.5 7.8 0.00 0.00 0.00 30 1007.0
20260508004556 69 355 7.0 11.3 0.00 0.00 0.00 27 1006.9
20260508003049 70 317 5.2 9.6 0.00 0.00 0.00 27 1006.9
20260508001551 69 284 6.1 13.9 0.00 0.00 0.00 28 1006.8
20260508000047 69 332 7.8 13.9 0.00 0.00 0.00 27 1007.0
20260507234553 69 323 7.8 12.2 0.00 0.00 0.00 27 1006.9
20260507233047 69 300 6.1 12.2 0.00 0.00 0.00 28 1006.9
20260507231550 70 319 5.2 11.3 0.00 0.00 0.00 29 1006.9
20260507230044 69 313 6.1 12.2 0.00 0.00 0.00 30 1006.9
20260507224544 69 307 6.1 16.5 0.00 0.00 0.00 29 1006.9
20260507223041 69 314 7.0 12.2 0.00 0.00 0.00 29 1007.0
20260507221539 69 323 6.1 13.0 0.00 0.00 0.00 30 1007.1
20260507220037 68 316 6.1 21.7 0.00 0.00 0.00 31 1007.3
20260507214536 68 319 5.2 15.6 0.00 0.00 0.00 31 1007.3
20260507213043 69 346 7.8 13.9 0.00 0.00 0.00 31 1007.5
20260507211536 68 333 7.8 14.8 0.00 0.00 0.00 30 1007.7
20260507210033 67 322 6.1 13.9 0.00 0.00 0.00 30 1007.8
20260507204532 68 325 7.0 12.2 0.00 0.00 0.00 30 1007.8
20260507203032 68 321 6.1 15.6 0.00 0.00 0.00 31 1007.7
20260507201530 67 323 6.1 13.9 0.00 0.00 0.00 32 1007.7
20260507200029 67 317 6.1 12.2 0.00 0.00 0.00 31 1007.5
20260507194531 67 317 5.2 11.3 0.00 0.00 0.00 32 1007.6
20260507193029 66 347 4.3 11.3 0.00 0.00 0.00 33 1007.6
20260507191527 67 328 7.8 13.9 0.00 0.00 0.00 31 1007.6
20260507190026 69 355 6.1 12.2 0.00 0.00 0.00 32 1007.7
20260507184523 67 323 7.0 12.2 0.00 0.00 0.00 33 1007.9
20260507183022 68 288 7.8 13.0 0.00 0.00 0.00 36 1008.1
20260507181521 67 336 5.2 14.8 0.00 0.00 0.00 35 1008.2
20260507180019 67 338 7.8 13.0 0.00 0.00 0.00 36 1008.3